Jaffrey, NH

10:54 AM EDT on September 21, 2017 (GMT -0400)
Jaffrey Airport-Silver Ranch

Weather History for KAFN - January, 2014

Change the Weather History Date:

Tuesday, January 21, 2014

  Actual Average Record
Temperature  
Mean Temperature 8 °F -  
Max Temperature 12 °F 24 °F 52 °F (2006)
Min Temperature 5 °F 8 °F -6 °F (2005)
Degree Days  
Heating Degree Days 56    
Moisture  
Dew Point -5 °F    
Average Humidity 59    
Maximum Humidity 80    
Minimum Humidity 42    
Precipitation  
Precipitation 0.00 in - - ()
Sea Level Pressure  
Sea Level Pressure 29.96 in    
Wind  
Wind Speed 4 mph (North)    
Max Wind Speed 7 mph    
Max Gust Speed -    
Visibility 7 miles    
Events Snow    
Averages and records for this station are not official NWS values.
T = Trace of Precipitation, MM = Missing Value Source: NWS Daily Summary

Daily Weather History Graph

Daily Weather History Graph

Search for Another Location

Airport or City:

Trip Planner

Search our weather history database for the weather conditions in past years. The results will help you decide how hot, cold, wet, or windy it might be!

Date:

Astronomy

Jan. 21, 2014 Rise Set
Actual Time 7:12 AM EST 4:46 PM EST
Civil Twilight 6:41 AM EST 5:17 PM EST
Nautical Twilight 6:06 AM EST 5:52 PM EST
Astronomical Twilight 5:33 AM EST 6:25 PM EST
Moon 10:25 PM EST 9:32 AM EST
Length of Visible Light 10h 36m
Length of Day
9h 34m
Waning Gibbous, 75% of the Moon is Illuminated
Jan 21
Waning Gibbous
Jan 24
Last Quarter
Jan 30
New
Feb 6
First Quarter
Feb 14
Full

Hourly Weather History & Observations

Time (EST) Temp. Windchill Dew Point Humidity Pressure Visibility Wind Dir Wind Speed Gust Speed Precip Events Conditions
12:52 AM 12.9 °F 5.2 °F 1.0 °F 59% 29.90 in 10.0 mi Variable 4.6 mph - N/A   Clear
1:52 AM 12.9 °F 5.2 °F -0.9 °F 54% 29.92 in 10.0 mi NW 4.6 mph - N/A   Clear
2:52 AM 12.0 °F 2.7 °F -2.9 °F 51% 29.96 in 10.0 mi Variable 5.8 mph - N/A   Clear
3:52 AM 10.9 °F 2.9 °F -5.1 °F 49% 29.96 in 10.0 mi Variable 4.6 mph - N/A   Clear
4:52 AM 7.0 °F - -2.9 °F 64% 29.97 in 10.0 mi Calm Calm - N/A   Clear
5:52 AM 6.1 °F -0.9 °F -6.0 °F 58% 30.01 in 10.0 mi Variable 3.5 mph - N/A   Clear
6:52 AM 6.1 °F -2.8 °F -8.0 °F 53% 30.01 in 10.0 mi WNW 4.6 mph - N/A   Clear
7:52 AM 5.0 °F - -7.1 °F 58% 30.02 in 10.0 mi Calm Calm - N/A   Clear
8:52 AM 6.1 °F - -9.9 °F 48% 30.05 in 10.0 mi Calm Calm - N/A   Clear
9:52 AM 7.0 °F -1.7 °F -11.0 °F 44% 30.04 in 10.0 mi Variable 4.6 mph - N/A   Mostly Cloudy
10:52 AM 8.1 °F -2.0 °F -9.9 °F 44% 30.04 in 10.0 mi Variable 5.8 mph - N/A   Mostly Cloudy
11:52 AM 9.0 °F 2.4 °F -8.0 °F 46% 30.04 in 10.0 mi NNW 3.5 mph - N/A   Overcast
12:52 PM 9.0 °F - -9.0 °F 44% 30.04 in 10.0 mi Calm Calm - N/A   Overcast
1:52 PM 10.0 °F -0.9 °F -8.0 °F 44% 30.01 in 10.0 mi Variable 6.9 mph - N/A   Overcast
2:52 PM 10.0 °F -0.9 °F -8.0 °F 44% 29.98 in 10.0 mi NNE 6.9 mph - N/A   Overcast
3:52 PM 9.0 °F -0.9 °F -9.9 °F 42% 29.97 in 10.0 mi Variable 5.8 mph - N/A   Overcast
4:52 PM 8.1 °F 1.4 °F -9.9 °F 44% 29.98 in 10.0 mi Variable 3.5 mph - N/A   Overcast
5:52 PM 7.0 °F 0.1 °F -9.9 °F 46% 29.99 in 10.0 mi Variable 3.5 mph - N/A   Overcast
6:52 PM 6.1 °F -2.8 °F -7.1 °F 55% 30.00 in 7.0 mi NNE 4.6 mph - 0.00 in Snow Light Snow
7:52 PM 6.1 °F -2.8 °F -8.0 °F 53% 30.00 in 9.0 mi North 4.6 mph - 0.00 in Snow Light Snow
8:40 PM 5.0 °F -5.6 °F -5.1 °F 63% 29.91 in 2.5 mi NNE 5.8 mph - 0.00 in Snow Light Snow
8:52 PM 5.0 °F -5.6 °F -2.9 °F 70% 30.00 in 1.5 mi North 5.8 mph - 0.00 in Snow Light Snow
9:11 PM 5.0 °F -4.1 °F -2.0 °F 73% 29.90 in 1.2 mi Variable 4.6 mph - 0.00 in Snow Light Snow
9:23 PM 5.0 °F -4.1 °F -0.9 °F 76% 29.90 in 1.5 mi Variable 4.6 mph - 0.00 in Snow Light Snow
9:52 PM 5.0 °F - -0.9 °F 76% 29.98 in 1.8 mi Calm Calm - 0.00 in Snow Light Snow
10:01 PM 5.0 °F - -0.0 °F 80% 29.89 in 2.0 mi Calm Calm - 0.00 in Snow Light Snow
10:52 PM 5.0 °F -4.1 °F -0.9 °F 76% 29.96 in 2.5 mi NNE 4.6 mph - 0.00 in Snow Light Snow
10:59 PM 5.0 °F -4.1 °F -0.9 °F 76% 29.87 in 3.0 mi Variable 4.6 mph - 0.00 in Snow Light Snow
11:10 PM 5.0 °F -4.1 °F -0.9 °F 76% 29.86 in 2.5 mi NNW 4.6 mph - 0.00 in Snow Light Snow
11:27 PM 5.0 °F -2.1 °F -2.0 °F 73% 29.85 in 4.0 mi Variable 3.5 mph - 0.00 in Snow Light Snow
11:36 PM 5.0 °F -2.1 °F -2.0 °F 73% 29.84 in 6.0 mi Variable 3.5 mph - 0.00 in Snow Light Snow
11:52 PM 5.0 °F -5.6 °F -2.9 °F 70% 29.91 in 10.0 mi North 5.8 mph - 0.00 in   Overcast